Regional Weather Roundup
Issued by NWS

Home | Current Version | Previous Version | Graphics & Text | Print | Product List | Glossary On
Versions: 1 2 3 4 5 6 7 8 9 10 11 12 13 14 15 16 17 18 19 20 21 22 23 24 25 26 27 28 29 30 31 32 33 34 35 36 37 38 39 40 41 42 43 44 45 46 47 48 49 50
000
ASUS43 KMKX 092011
RWRWI

WISCONSIN REGIONAL WEATHER ROUNDUP
NATIONAL WEATHER SERVICE MILWAUKEE/SULLIVAN WI
200 PM CST FRI DEC 09 2016

NOTE: "FAIR" INDICATES FEW OR NO CLOUDS BELOW 12,000 FEET WITH NO
SIGNIFICANT WEATHER AND/OR OBSTRUCTIONS TO VISIBILITY.

WIZ001-002-006>008-014>016-023>028-092100-
NORTHWEST WISCONSIN

CITY           SKY/WX    TMP DP  RH WIND       PRES   REMARKS
SUPERIOR ARPT  CLOUDY    14   2  59 NW12      30.50S WCI   0
ASHLAND        CLOUDY    16   6  65 W9        30.46S WCI   4
HAYWARD        LGT SNOW  16   7  67 W8        30.43S WCI   5
SIREN          LGT SNOW  16  11  82 NW5       30.47S WCI   8
CUMBERLAND     FLURRIES  18  10  73 W8        30.44S WCI   7
RICE LAKE      FLURRIES  18  12  77 SW8       30.47S WCI   8
CHETEK         FLURRIES  18  11  75 SW8       30.46F WCI   7
LADYSMITH      LGT SNOW  18  13  80 W7        30.44F WCI   9
EAU CLAIRE     CLOUDY    18  10  71 W12       30.48S WCI   5
MENOMONIE      FLURRIES  19  12  72 SW9       30.48F WCI   9
NEW RICHMOND   FLURRIES  19  10  69 W8        30.47F WCI   9
OSCEOLA        FLURRIES  19  11  73 W8        30.51F WCI   8
$$

WIZ003>005-009-010-017-018-092100-
NORTH CENTRAL WISCONSIN

CITY           SKY/WX    TMP DP  RH WIND       PRES   REMARKS
MANITOWISH WTR CLOUDY    13   5  69 W8        30.37S WCI   2
ARBOR VITAE    CLOUDY    17   8  69 NW8       30.37S WCI   6
WOODRUFF       CLOUDY    17   8  69 NW8       30.37S WCI   6
RHINELANDER    FLURRIES  16   7  67 NW8       30.37S WCI   5
EAGLE RIVER    CLOUDY    16   6  64 W14       30.34S WCI   1
LAND O LAKES   CLOUDY    17   9  71 W8        30.36R WCI   6
PHILLIPS       CLOUDY    15   8  71 W3        30.39S
TOMAHAWK       CLOUDY    16   6  64 W5        30.39F WCI   9
MEDFORD        CLOUDY    17   8  65 W8        30.39F WCI   7
MERRILL        CLOUDY    19   6  59 NW12G17   30.41S WCI   6
$$

WIZ029-030-035-036-043>047-092100-
CENTRAL WISCONSIN

CITY           SKY/WX    TMP DP  RH WIND       PRES   REMARKS
WAUSAU         MOSUNNY   19   7  59 W10       30.40F WCI   7
MOSINEE        MOSUNNY   18   9  68 NW12G18   30.42F WCI   5
MARSHFIELD     SUNNY     18   8  65 W9        30.42F WCI   7
STEVENS POINT  CLOUDY    18   7  62 W9        30.44S WCI   7
WAUPACA        SUNNY     26  10  51 W9        30.44F WCI  16
WAUTOMA        SUNNY     22  10  60 NW14      30.46F WCI   9
WISC RAPIDS    MOSUNNY   21   9  59 NW9       30.45F WCI  11
CAMP DOUGLAS   SUNNY     24  10  55 W8        30.47F WCI  15
$$

WIZ011>013-019>022-031-037>040-048>050-092100-
NORTHEAST WISCONSIN

CITY           SKY/WX    TMP DP  RH WIND       PRES   REMARKS
ANTIGO         CLOUDY    18   8  66 W13G21    30.37S WCI   4
SHAWANO        SUNNY     24   8  51 NW9       30.42S WCI  14
OCONTO         CLOUDY    24   8  50 W12       30.39S WCI  13
STURGEON BAY   CLOUDY    25  10  53 W12       30.38S WCI  14
GREEN BAY      MOSUNNY   26  11  52 NW16G24   30.41S WCI  14
MANITOWOC      PTSUNNY   25  10  53 W14G22    30.42S WCI  13
APPLETON       MOSUNNY   25   7  46 W17G23    30.40F WCI  11
CLINTONVILLE   SUNNY     25   7  46 NW13G21   30.42S WCI  13
OSHKOSH        SUNNY     24   9  52 W12G21    30.43S WCI  13
$$

WIZ032>034-041-042-053>061-092100-
SOUTHWEST WISCONSIN

CITY           SKY/WX    TMP DP  RH WIND       PRES   REMARKS
LA CROSSE      SUNNY     25   9  50 NW9       30.51F WCI  15
SPARTA         MOSUNNY   24  11  58 NW3       30.49S
VIROQUA        MOSUNNY   20  12  70 SW7       30.46S WCI  11
BOSCOBEL       SUNNY     25  11  55 W6        30.52S WCI  18
PRAIRIE DU CHI SUNNY     23  11  60 W6        30.53S WCI  15
PLATTEVILLE    MOSUNNY   22  15  73 NW6       30.49F WCI  14
$$

WIZ056-057-062-063-064-067-068-092100-
SOUTH CENTRAL WISCONSIN

CITY           SKY/WX    TMP DP  RH WIND       PRES   REMARKS
REEDSBURG      SUNNY     24  11  57 W8        30.47S WCI  15
BARABOO/DELLS  SUNNY     23   9  54 W12       30.46S WCI  12
LONE ROCK      SUNNY     25  11  55 NW8       30.50F WCI  16
MINERAL POINT  SUNNY     23  14  68 W7        30.47S WCI  15
MADISON        MOSUNNY   23  10  57 NW8       30.47F WCI  14
MIDDLETON      SUNNY     26  13  56 W6        30.47S WCI  19
WATERTOWN      SUNNY     23  11  61 W9        30.46F WCI  13
MONROE         SUNNY     23  14  68 W8        30.47S WCI  14
JANESVILLE     MOSUNNY   25  12  58 W10       30.48F WCI  15
$$

WIZ051-052-058>065-066-070>072-092100-
SOUTHEAST WISCONSIN

CITY           SKY/WX    TMP DP  RH WIND       PRES   REMARKS
MILWAUKEE      MOSUNNY   27   7  42 NW12      30.46S WCI  17
WAUKESHA       MOSUNNY   23  10  58 W14G20    30.46F WCI  11
MILWAUKEE/TIMM SUNNY     25   7  46 NW15G22   30.46F WCI  12
RACINE         SUNNY     27   8  44 W12       30.47F WCI  17
BURLINGTON     SUNNY     31  16  54 NW10      30.46F WCI  22
KENOSHA        MOSUNNY   27  11  51 W14       30.46F WCI  16
FOND DU LAC    SUNNY     24   9  52 W13       30.44F WCI  12
SHEBOYGAN      PTSUNNY   24   8  50 NW20G25   30.43S WCI  10
WEST BEND      SUNNY     23  10  58 NW12G22   30.44S WCI  12
JUNEAU         SUNNY     22  10  60 W10       30.46F WCI  11
$$

LSZ147-162-092100-
LAKE SUPERIOR

STATION/POSITION TIME  TEMP    WIND        PRES    WAVE
                       AIR SEA DIR/SP/G            HT/PER
                 (UTC) (F)     (DEG/KT/KT) (MB)    (FT/S)
DEVILS ISLAND    1900   17     280/ 11/ 15 1032.2F
PORT WING        1940   16     270/ 10/ 18 1031.8S
SAXON HARBOR     1940   18     280/  8/ 16 1030.8F
$$

LMZ867-665-643>646-092100-
LAKE MICHIGAN

STATION/POSITION TIME  TEMP    WIND        PRES    WAVE
                       AIR SEA DIR/SP/G            HT/PER
                 (UTC) (F)     (DEG/KT/KT) (MB)    (FT/S)
CHAMBERS ISLAND  1940   26     260/  5/ 11 1027.8F
NORTHPORT PIER   1948   27     300/ 11/ 17 1027.8F
SISTER BAY       1950   27     320/ 16/ 18   N/A
ALGOMA LAKESHORE 1851          330/ 13/ 15   N/A
KEWAUNEE LAKESHO 1948   24     310/  8/ 12 1028.6F
SHEBOYGAN LAKESH 2000   24     280/ 13/ 17 1031.2R
PORT WASHINGTON  1940   25     290/ 11/ 16 1031.8S
MILWAUKEE LAKESH 1950   26     330/ 11/ 13   N/A
KENOSHA   LAKESH 2000   25     290/ 12/ 15 1031.5
$$

TC  - TEMPERATURE IN CELSIUS
VSB - VISIBILITY IN STATUTE MILES
WCI - WIND CHILL INDEX
HX  - HEAT INDEX





USA.gov is the U.S. government's official web portal to all federal, state and local government web resources and services.